NOAA NWS Hourly Roundups by Site

Regional Weather Roundup for State College, PA

To Select Another Site Choose from List

Select Site:  

539
ASUS41 KCTP 190610
RWRCTP

REGIONAL WEATHER ROUNDUP
NATIONAL WEATHER SERVICE STATE COLLEGE PA
200 AM EDT THU SEP 19 2019

Note: "fair" indicates few or no clouds below 12,000 feet with no
significant weather and/or obstructions to visibility.

* = STATION THAT DOES NOT REPORT PRECIPITATION /E.G. RAIN...SNOW...ETC/
    THUNDER OR FOG.

PAZ002>004-007>009-013>016-020>023-029>032-190700-
WESTERN PENNSYLVANIA

CITY           SKY/WX    TMP DP  RH WIND       PRES   REMARKS
ERIE           FAIR      60  47  61 SE6       30.24R
MEADVILLE      FAIR      58  43  57 VRB5      30.26R
FRANKLIN*      FAIR      54  45  71 E5        30.28R
NEW CASTLE     FAIR      57  45  64 E6        30.25R
BEAVER COUNTY  FAIR      57  44  62 E5        30.24S
BUTLER*        FAIR      55  45  68 E7        30.26R
PITTSBURGH INT FAIR      57  43  59 E6        30.23S
PITTSBURGH     FAIR      59  43  55 E5        30.23R
INDIANA*       CLEAR     55  46  71 E5        30.30S
LATROBE        FAIR      55  45  67 CALM      30.25S
WASHINGTON CO* FAIR      55  46  71 E3        30.25S
$$

PAZ004>006-010>012-017>019-024>028-033>037-041-042-045-046-049>053-190700-
CENTRAL PENNSYLVANIA

CITY           SKY/WX    TMP DP  RH WIND       PRES   REMARKS
BRADFORD       FAIR      45  41  86 CALM      30.30R
DUBOIS         FAIR      51  42  71 E7        30.28S
CLEARFIELD     FAIR      46  43  89 CALM      30.30R
JOHNSTOWN      FAIR      52  40  63 SE5       30.27S
ALTOONA        FAIR      49  43  80 CALM      30.29R
STATE COLLEGE  FAIR      50  46  86 N3        30.29S
WILLIAMSPORT   FAIR      50  46  86 CALM      30.29S
SELINSGROVE    FAIR      48  46  93 CALM      30.31R
FT INDIANTOWN  FAIR      53  47  80 CALM      30.32R
CAPITAL CITY   FAIR      59  50  72 E5        30.31R
HARRISBURG     FAIR      58  50  75 NE3       30.31R
YORK           FAIR      51  47  86 CALM      30.31R
$$

PAZ038>040-043-044-047-048-054-055-060>062-067>071-190700-
EASTERN PENNSYLVANIA

CITY           SKY/WX    TMP DP  RH WIND       PRES   REMARKS
SCRANTON       FAIR      51  45  79 NE8       30.32S
MOUNT POCONO   FAIR      44  43  96 E5        30.33S
ALLENTOWN      FAIR      52  46  80 CALM      30.32R
QUAKERTOWN*    CLEAR     48  46  93 CALM      30.32F
READING        FAIR      56  51  84 N5        30.31R
LANCASTER      FAIR      55  49  80 CALM      30.32R
COATESVILLE    FAIR      52  50  93 CALM      30.32S
POTTSTOWN      FAIR      50  49  96 CALM      30.33S
BLUE BELL      FAIR      47  47  99 CALM      30.32S
DOYLESTOWN     FAIR      51  47  86 CALM      30.31S
WILLOW GROVE   NOT AVBL
NORTH PHILA    FAIR      55  46  71 NE6       30.32S
PHILADELPHIA   FAIR      56  46  69 NE6       30.31R
$$



 

View Past Reports for State College, PA.

Products Courtesy of NOAA-NWS
NWS Information Parsing Script by Ken True at Saratoga Weather - Script by SE Lincoln Weather.